www.pogodaiklimat.ru

Погода и климат >> Архив погоды >> Норвегия >> Лекнес


ПОГОДА в Лекнесе

  • Прогноз погоды в Лекнесе
  • Монитор погоды в Лекнесе

АРХИВ ПОГОДЫ в Лекнесе

Время (UTC), дата Ветер
(напр.,м/с)
 
Видим.   Явления Облачность Т
(С)
Тd
(С)
f
(%)
Тe
(С)
Тes
(С)
Комфортность P
(гПа)
Po
(гПа)
Тmin
(С)
Tmax
(С)
R
(мм)
R24
(мм)
S
(см)
07 11.02 СЗ 11
{17}
н/о н/о +2.3 -4.4 61 -5 -5 990.2 987.2 0.6
08 11.02 СЗ 11
{18}
н/о н/о +2.0 -5.6 57 -5 -5 991.3 988.3 0.2
09 11.02 СЗ 9
{15}
н/о н/о +2.2 -3.5 66 -5 -5 992.3 989.3 0.5
10 11.02 З 10
{18}
н/о н/о +0.5 -1.9 84 -8 -8 993.6 990.6 1
11 11.02 З 12
{19}
н/о н/о +1.2 -5.9 59 -7 -7 994.3 991.2 0.2
12 11.02 З 11
{19}
н/о н/о +0.4 -4.2 71 -8 -8 995.1 992.1
13 11.02 З 7
{15}
н/о н/о +0.6 -5.8 62 -6 -6 995.8 992.7
14 11.02 З 8
{15}
н/о н/о +0.9 -8.0 51 -6 -6 996.3 993.2
15 11.02 З 8
{15}
н/о н/о +0.3 -7.4 56 -7 -7 996.7 993.6 0.3
16 11.02 Ю 2
{14}
н/о н/о -1.7 -3.4 88 -6 -6 997.3 994.2 0.1
17 11.02 З 5
{9}
н/о н/о -0.1 -4.9 70 -6 -6 997.6 994.6
18 11.02 З 4
{15}
н/о н/о -0.3 -4.6 73 -6 -6 997.7 994.6 -2.1 +2.5 3
19 11.02 З 8
{14}
н/о н/о -0.8 -1.8 93 -9 -9 998.2 995.2 0.6
20 11.02 З 5
{11}
н/о н/о +0.2 -1.7 87 -6 -6 998.5 995.4 0.8
21 11.02 СЗ 11
{19}
н/о н/о +1.0 -5.2 63 -7 -7 999.7 996.6 0.4
22 11.02 З 11
{18}
н/о н/о +0.7 -5.7 62 -7 -7 1000.3 997.2 0.9
23 11.02 З 11
{20}
н/о н/о +0.6 -5.0 66 -7 -7 1000.7 997.6 0.6
00 12.02 З 13
{22}
н/о н/о +0.4 -5.2 66 -8 -8 1000.9 997.9 0.6
01 12.02 З 16
{26}
н/о н/о -1.5 -4.6 79 -12 -12 1001.4 998.3 0.8
02 12.02 З 16
{24}
н/о н/о -0.6 -4.8 73 -10 -10 1001.6 998.5 0.9
03 12.02 З 15
{26}
н/о н/о -0.3 -5.4 68 -10 -10 1001.8 998.7 1
04 12.02 З 18
{23}
н/о н/о -0.4 -5.0 71 -10 -10 1001.8 998.7 0.3
05 12.02 З 16
{24}
н/о н/о -0.3 -4.5 73 -10 -10 1002.2 999.1 0.7
06 12.02 З 18
{26}
н/о н/о -0.7 -3.4 82 -11 -11 1002.2 999.1 -2.0 +1.3 8
07 12.02 З 18
{23}
н/о н/о -0.4 -3.4 80 -11 -11 1002.1 999.0 2
08 12.02 З 16
{23}
н/о н/о -0.6 -2.1 90 -11 -11 1002.9 999.8 1
09 12.02 З 15
{22}
н/о н/о -0.4 -2.5 86 -10 -10 1003.6 1000.5 1
10 12.02 З 13
{20}
н/о н/о +0.5 -4.3 70 -8 -8 1004.0 1000.9 0.7
11 12.02 З 11
{17}
н/о н/о +0.3 -5.7 64 -8 -8 1004.6 1001.5 0.8
12 12.02 З 12
{23}
н/о н/о +0.1 -6.3 62 -8 -8 1005.2 1002.1
13 12.02 З 9
{14}
н/о н/о +0.1 -8.8 51 -7 -7 1005.9 1002.8 0.4
14 12.02 З 10
{13}
н/о н/о 0.0 -6.9 60 -8 -8 1005.8 1002.7 0.1
15 12.02 СЗ 7
{14}
н/о н/о -1.7 -3.6 87 -9 -9 1005.6 1002.5
16 12.02 ЮЗ 6
{9}
н/о н/о -2.0 -4.1 86 -9 -9 1005.2 1002.1 0.1
17 12.02 ЮВ 2
{6}
н/о н/о -2.2 -4.1 87 -6 -6 1004.4 1001.3 0.3
18 12.02 ЮВ 2
{14}
н/о н/о -2.6 -4.1 89 -7 -7 1003.3 1000.2 -2.6 +0.6 7
19 12.02 СВ 1
{3}
н/о н/о -4.0 -5.8 87 -6 -6 1002.2 999.1
20 12.02 СВ 1
{2}
н/о н/о -4.3 -6.1 87 -7 -7 1001.1 998.0
21 12.02 С 2
{3}
н/о н/о -4.7 -6.6 87 -9 -9 1000.3 997.2
22 12.02 СВ 2
{5}
н/о н/о -3.0 -6.1 79 -7 -7 999.2 996.1
23 12.02 В 5
{7}
н/о н/о -1.7 -5.1 78 -8 -8 997.6 994.6
00 13.02 В 4
{7}
н/о н/о -2.3 -5.7 77 -8 -8 996.3 993.3
01 13.02 В 4
{8}
н/о н/о -1.1 -5.3 73 -7 -7 995.0 991.9
02 13.02 В 5
{7}
н/о н/о -1.2 -5.9 70 -7 -7 994.0 990.9
03 13.02 В 7
{10}
н/о н/о -1.0 -7.2 63 -8 -8 992.6 989.5
04 13.02 СВ 5
{12}
н/о н/о -1.9 -7.9 64 -8 -8 991.9 988.8 0.3
05 13.02 С 2
{8}
н/о н/о -2.8 -8.0 67 -6 -6 991.9 988.8
06 13.02 СВ 3
{12}
н/о н/о -2.7 -8.1 66 -7 -7 991.8 988.8 -5.2 -0.9 0.3
07 13.02 С 4
{4}
н/о н/о -2.8 -8.0 67 -8 -8 992.1 989.0
08 13.02 СВ 2
{4}
н/о н/о -1.7 -8.1 62 -5 -5 992.8 989.7
09 13.02 С 3
{4}
н/о н/о -2.7 -7.9 67 -8 -8 993.9 990.9
10 13.02 СВ 2
{3}
н/о н/о -2.1 -7.7 65 -6 -6 995.2 992.1
11 13.02 СВ 3
{4}
н/о н/о -1.7 -6.8 68 -6 -6 996.7 993.6
12 13.02 С 2
{4}
н/о н/о -1.6 -6.8 68 -5 -5 998.6 995.5
13 13.02 СЗ 4
{7}
н/о н/о +0.8 -5.8 61 -4 -4 1000.5 997.5
14 13.02 СЗ 4
{6}
н/о н/о +1.4 -4.2 66 -3 -3 1002.3 999.2
15 13.02 З 6
{9}
н/о н/о +2.2 -5.2 58 -3 -3 1003.7 1000.6
16 13.02 З 7
{12}
н/о н/о +2.0 -5.1 59 -4 -4 1005.5 1002.4
17 13.02 З 5
{11}
н/о н/о +2.3 -5.3 57 -3 -3 1006.8 1003.7
18 13.02 ЮЗ 3
{12}
н/о н/о +2.3 -4.9 59 -1 -1 1006.9 1003.8 -3.3 +2.6
19 13.02 Ю 5
{7}
н/о н/о +1.7 -3.2 70 -4 -4 1007.2 1004.2
20 13.02 Ю 4
{7}
н/о н/о +1.8 -1.8 77 -3 -3 1006.8 1003.7
21 13.02 Ю 6
{9}
н/о н/о +1.5 +0.2 91 -5 -5 1006.1 1003.0
22 13.02 Ю 6
{9}
н/о н/о +1.8 +1.1 95 -5 -5 1005.1 1002.0 0.5
23 13.02 Ю 6
{10}
н/о н/о +2.3 +1.4 94 -4 -4 1004.6 1001.5 0.2
00 14.02 Ю 6
{10}
н/о н/о +3.1 +2.1 93 -3 -3 1003.7 1000.6 0.3
01 14.02 Ю 7
{12}
н/о н/о +3.5 +2.0 90 -3 -3 1002.7 999.6
02 14.02 Ю 8
{13}
н/о н/о +3.3 +2.3 93 -3 -3 1001.0 998.0 0.6
03 14.02 ЮВ 5
{12}
н/о н/о +2.7 +1.1 89 -3 -3 999.4 996.4 1
04 14.02 ЮВ 6
{11}
н/о н/о +2.2 +0.3 87 -4 -4 997.7 994.6 1
05 14.02 ЮВ 4
{12}
н/о н/о +2.5 +1.0 90 -2 -2 994.9 991.9 0.6
06 14.02 ЮВ 5
{13}
н/о н/о +4.7 +3.8 94 -0 -0 991.3 988.3 +1.2 +4.7 8
07 14.02 Ю 11
{15}
н/о н/о +5.6 +5.2 97 -1 -1 988.3 985.3 3
08 14.02 ЮЗ 9
{17}
н/о н/о +8.3 +1.7 63 +4 +4 987.2 984.3 2
09 14.02 З 10
{20}
н/о н/о +5.5 +2.3 80 -1 -1 987.3 984.3 1
10 14.02 ЮЗ 10
{20}
н/о н/о +7.1 -0.3 59 +2 +2 986.8 983.8 0.3
11 14.02 ЮЗ 8
{17}
н/о н/о +6.3 +1.5 71 +1 +1 985.0 982.0 0.6
12 14.02 ЮЗ 12
{24}
н/о н/о +6.9 +0.6 64 +1 +1 983.9 980.9 0.9
13 14.02 З 15
{25}
н/о н/о +5.8 -0.7 63 -1 -1 984.1 981.2 1
14 14.02 З 16
{24}
н/о н/о +4.8 +0.4 73 -3 -3 984.5 981.5 2
15 14.02 З 14
{27}
н/о н/о +4.2 +1.6 83 -3 -3 985.9 983.0 3
16 14.02 З 14
{23}
н/о н/о +4.3 +1.0 79 -3 -3 987.2 984.2 2
17 14.02 З 14
{26}
н/о н/о +4.5 -0.3 71 -3 -3 988.2 985.2 0.7
18 14.02 З 13
{27}
н/о н/о +4.4 -0.2 72 -3 -3 988.7 985.7 +3.6 +9.1 18
19 14.02 З 14
{26}
н/о н/о +3.6 +0.1 78 -4 -4 989.8 986.8 3
20 14.02 З 14
{25}
н/о н/о +4.0 -0.6 72 -4 -4 990.6 987.6 0.5
21 14.02 З 15
{26}
н/о н/о +3.6 +0.5 80 -4 -4 991.1 988.1 3
22 14.02 З 21
{32}
н/о н/о +3.9 +0.8 80 -5 -5 991.2 988.2 1
23 14.02 З 19
{34}
н/о н/о +3.8 +1.4 84 -5 -5 992.0 989.0 3
00 15.02 З 21
{34}
н/о н/о +4.4 +0.7 77 -4 -4 993.9 990.9 0.7
01 15.02 З 18
{28}
н/о н/о +4.3 +0.8 78 -4 -4 996.3 993.2 0.7
02 15.02 З 17
{25}
н/о н/о +4.4 +0.7 77 -4 -4 997.1 994.1 2
03 15.02 З 12
{24}
н/о н/о +3.9 +1.1 82 -3 -3 998.3 995.3 2
04 15.02 З 9
{15}
н/о н/о +4.2 +2.2 87 -2 -2 998.3 995.3 1
05 15.02 З 8
{14}
н/о н/о +4.3 +2.7 89 -2 -2 1000.6 997.5 1
06 15.02 СЗ 6
{28}
н/о н/о +3.4 +1.9 90 -2 -2 1001.9 998.9 +3.0 +4.9 16
07 15.02 СЗ 4
{9}
н/о н/о +3.2 +1.1 86 -2 -2 1002.9 999.9
08 15.02 ЮЗ 3
{7}
н/о н/о +1.9 +0.7 92 -3 -3 1004.1 1001.0 0.1
09 15.02 З 2
{4}
н/о н/о +1.8 +1.1 95 -2 -2 1004.9 1001.8 1
10 15.02 В 2
{3}
н/о н/о +1.3 +0.9 97 -2 -2 1005.3 1002.2 0.9
11 15.02 ЮВ 2
{6}
н/о н/о +0.9 +0.5 97 -3 -3 1005.4 1002.3 1
12 15.02 С 2
{9}
н/о н/о +0.5 +0.1 97 -3 -3 1005.7 1002.6 0.7
13 15.02 В 1
{5}
н/о н/о +1.0 +0.7 98 -1 -1 1005.5 1002.4 0.4
14 15.02 В 2
{3}
н/о н/о +1.0 +0.7 98 -3 -3 1005.1 1002.1 0.3
15 15.02 З 1
{2}
н/о н/о +0.8 +0.4 97 -1 -1 1004.5 1001.4
16 15.02 СЗ 1
{3}
н/о н/о +1.2 +0.9 98 -1 -1 1003.4 1000.4
17 15.02 Ю 4
{6}
н/о н/о +2.2 +1.5 95 -3 -3 1002.0 999.0
18 15.02 Ю 6
{9}
н/о н/о +1.7 +0.8 94 -5 -5 1000.8 997.7 +0.5 +3.4 6
19 15.02 Ю 4
{8}
н/о н/о +1.1 +0.1 93 -4 -4 999.0 995.9 2
20 15.02 ЮВ 3
{8}
н/о н/о +1.6 +0.1 90 -3 -3 997.2 994.2 0.8
21 15.02 Ю 3
{7}
н/о н/о +3.2 +2.5 95 -1 -1 994.4 991.4 0.8
22 15.02 Ю 10
{15}
н/о н/о +4.9 +4.5 97 -2 -2 992.1 989.1 2
23 15.02 Ю 14
{20}
н/о н/о +5.4 +3.7 89 -2 -2 989.6 986.6 1
00 16.02 Ю 15
{22}
н/о н/о +5.1 +3.4 89 -3 -3 987.7 984.7 2
01 16.02 Ю 15
{26}
н/о н/о +4.9 +3.7 92 -3 -3 985.3 982.3 5
02 16.02 Ю 14
{23}
н/о н/о +4.8 +4.2 96 -3 -3 982.3 979.4 2
03 16.02 Ю 17
{29}
н/о н/о +5.4 +4.2 92 -3 -3 978.4 975.5 0.9
04 16.02 Ю 20
{33}
н/о н/о +4.1 +1.7 84 -5 -5 976.1 973.1
05 16.02 ЮЗ 16
{33}
н/о н/о +4.8 +1.1 77 -3 -3 975.5 972.6 0.3
06 16.02 З 18
{33}
н/о н/о +4.6 -0.4 70 -3 -3 976.0 973.0 +1.0 +6.3 17
07 16.02 ЮЗ 16
{31}
н/о н/о +4.3 -0.9 69 -3 -3 975.1 972.1 2
08 16.02 ЮЗ 17
{31}
н/о н/о +4.0 -0.4 73 -4 -4 973.8 970.8 0.8
09 16.02 ЮЗ 18
{30}
н/о н/о +3.5 +1.1 84 -5 -5 973.3 970.4 4
10 16.02 З 16
{31}
н/о н/о +3.6 +1.5 86 -5 -5 974.4 971.4 6
11 16.02 З 20
{32}
н/о н/о +3.3 +1.2 86 -6 -6 976.3 973.4 5
12 16.02 З 17
{32}
н/о н/о +4.3 +2.3 87 -4 -4 978.1 975.1 5
13 16.02 СЗ 19
{37}
н/о н/о +2.2 +0.7 90 -7 -7 984.2 981.2 2
14 16.02 СЗ 19
{32}
н/о н/о +2.3 -1.6 75 -7 -7 988.4 985.4 2
15 16.02 СЗ 17
{31}
н/о н/о +2.9 -3.0 65 -6 -6 991.5 988.5 1
16 16.02 СЗ 17
{27}
н/о н/о +3.1 -3.7 61 -5 -5 994.3 991.2
17 16.02 СЗ 12
{25}
н/о н/о +3.0 -2.3 68 -4 -4 996.6 993.6 0.9
18 16.02 С 14
{37}
н/о н/о +1.0 -1.5 83 -8 -8 999.1 996.1 +0.8 +4.9 29
19 16.02 СЗ 11
{20}
н/о н/о +2.3 -2.6 70 -5 -5 1000.8 997.7 0.5
20 16.02 СЗ 9
{16}
н/о н/о +2.4 -2.1 72 -4 -4 1002.3 999.2 0.1
21 16.02 СЗ 9
{16}
н/о н/о +2.3 -2.4 71 -5 -5 1003.5 1000.4 0.1
22 16.02 СЗ 10
{14}
н/о н/о +2.4 -2.5 70 -5 -5 1004.9 1001.8
23 16.02 СЗ 8
{13}
н/о н/о +2.3 -3.2 67 -4 -4 1006.5 1003.4
00 17.02 СЗ 5
{20}
н/о н/о +1.9 -1.9 76 -4 -4 1007.4 1004.3 0.1
01 17.02 СЗ 7
{12}
н/о н/о +1.8 -2.5 73 -5 -5 1008.9 1005.8
02 17.02 З 7
{12}
н/о н/о +2.0 -2.5 72 -4 -4 1009.7 1006.6
03 17.02 СЗ 8
{12}
н/о н/о +2.3 -4.6 60 -4 -4 1010.4 1007.3
04 17.02 СЗ 6
{10}
н/о н/о +2.1 -5.0 59 -3 -3 1011.0 1007.9
05 17.02 В 3
{9}
н/о н/о +1.1 -3.9 69 -3 -3 1011.4 1008.3
06 17.02 Ю 1
{12}
н/о н/о 0.0 -2.8 81 -2 -2 1012.0 1008.9 0.0 +2.7 0.9
07 17.02 ЮВ 2
{3}
н/о н/о -1.1 -3.3 85 -5 -5 1012.7 1009.6
08 17.02 ЮВ 2
{3}
н/о н/о -1.4 -4.5 79 -5 -5 1013.3 1010.2
09 17.02 СВ 2
{3}
н/о н/о -0.6 -3.1 83 -4 -4 1014.0 1010.9
10 17.02 Ю 1
{2}
н/о н/о -0.2 -3.3 80 -2 -2 1014.3 1011.2
11 17.02 В 1
{2}
н/о н/о -0.4 -3.2 81 -2 -2 1014.5 1011.4
12 17.02 ЮВ 1
{3}
н/о н/о 0.0 -2.4 84 -2 -2 1014.4 1011.3 0.1
13 17.02 В 2
{7}
н/о н/о +0.9 -0.7 89 -3 -3 1014.1 1011.0
14 17.02 СВ 1
{3}
н/о н/о +0.5 -0.8 91 -2 -2 1013.9 1010.8
15 17.02 З 1
{7}
н/о н/о +1.0 -0.6 89 -1 -1 1013.6 1010.4 0.2
16 17.02 СВ 1
{3}
н/о н/о +0.4 -0.3 95 -2 -2 1013.2 1010.1
17 17.02 В 2
{3}
н/о н/о +0.5 -0.2 95 -3 -3 1012.5 1009.4
18 17.02 СВ 1
{7}
н/о н/о -0.7 -1.2 96 -3 -3 1011.8 1008.7 -2.6 +2.0 0.3
19 17.02 штиль 0
{2}
н/о н/о -2.2 -2.7 96 -4 -4 1011.2 1008.0
20 17.02 С 2
{3}
н/о н/о -2.1 -2.5 97 -6 -6 1010.3 1007.2
21 17.02 В 1
{3}
н/о н/о -1.1 -1.5 97 -3 -3 1009.7 1006.6
22 17.02 ЮВ 4
{7}
н/о н/о +1.6 -3.8 67 -3 -3 1009.2 1006.1
23 17.02 ЮВ 3
{6}
н/о н/о +1.9 -5.2 59 -2 -2 1008.2 1005.2
00 18.02 ЮВ 4
{7}
н/о н/о +1.8 -6.2 55 -3 -3 1007.2 1004.1
01 18.02 В 3
{7}
н/о н/о +1.5 -6.1 57 -2 -2 1005.9 1002.9
02 18.02 В 4
{7}
н/о н/о +1.4 -5.5 60 -3 -3 1004.7 1001.6
03 18.02 В 3
{6}
н/о н/о +1.5 -5.8 58 -2 -2 1003.5 1000.4
05 18.02 В 5
{8}
н/о н/о +0.9 -4.5 67 -5 -5 1000.8 997.7
06 18.02 ЮВ 4
{9}
н/о н/о -0.1 -2.2 86 -6 -6 999.6 996.5 -2.6 +2.0 0.3
07 18.02 ЮВ 3
{8}
н/о н/о -0.5 -1.6 92 -5 -5 998.2 995.1 0.8

 

Местоположение метеостанции Лекнес (Норвегия): широта 68.16 долгота 13.62 высота над уровнем моря 26 м.

В архиве по умолчанию представлена погода в Лекнесе за последнюю неделю. Архивные данные за месяц целиком и за предыдущие месяцы, начиная с января 2011 года, Вы можете получить, выбрав интересующий диапазон дат из раскрывающегося списка и нажав кнопку "Ввод!".


*Определитесь, кто Вы:
робот инопланетянин человек

Внимание! Время в таблицах - всемирное. Для получения местного времени необходимо прибавить поправку, которая равна 1 ч.

Смотрите также архив погоды в соседних городах и на ближайших метеорологических станциях:

Погода на Маяке Skrova (Норвегия) (43 км)
Погода в Сволваер аэропорту (Норвегия) (45 км)
Погода в Бё (Норвегия) (60 км)
Погода в Аэропорту Vaeroy Heliport (Норвегия) (68 км)
Погода в Стокмаркнес аэропорту (Норвегия) (74 км)
Погода в Хеллигвере (Норвегия) (85 км)
Погода в Сортланне (Норвегия) (95 км)
Погода в Рост аэропорту (Норвегия) (96 км)
Погода на Маяке Rotvaer (Норвегия) (98 км)
Погода в Драге (Норвегия) (103 км)

Пояснения к столбцам:

Ветер - указаны скорость ветра в м/с - средняя за 10 мин, порывы в срок и между сроками (в фигурных скобках) и направление, откуда дует ветер: С - северный, СВ - северо-восточный, В - восточный, ЮВ - юго-восточный, Ю - южный, ЮЗ - юго-западный, З - западный, СЗ - северо-западный.
Видимость - горизонтальная дальность видимости в метрах или километрах. При видимости от 1 до 10 км при отсутствии осадков обычно наблюдается дымка, при ухудшении видимости до 1 км и менее - туман. В сухую погоду видимость может ухудшаться дымом, пылью или мглою.
Явления - указаны атмосферные явления, наблюдавшиеся в срок или в последний час перед сроком; фигурными скобками обозначены явления, наблюдавшиеся между сроками (за 1-3 часа до срока); квадратными скобками обозначены град или гололедные отложения с указанием их диаметра в мм.
Облачность - указаны через наклонную черту общая и нижняя облачность в баллах и высота нижней границы облаков в метрах; квадратными скобками обозначены формы облаков: Ci - перистые, Cs - перисто-слоистые, Cc - перисто-кучевые, Ac - высококучевые, As - высокослоистые, Sc - слоисто-кучевые, Ns - слоисто-дождевые, Cu - кучевые, Cb - кучево-дождевые. Подробнее классификацию облаков см. в Атласе облаков (PDF).
T - Температура воздуха - температура, измеренная на высоте 2 м над землей.
Td - Температура точки росы - температура, при понижении до которой содержащийся в воздухе водяной пар достигнет насыщения.
f - Относительная влажность воздуха - влажноcть воздуха, измеренная на высоте 2 м над землей.
Te - Эффективная температура - температура, которую ощущает одетый по сезону человек в тени. Характеристика душности погоды. При расчете учитывается влияние влажности воздуха и скорости ветра на теплоощущения человека.
Tes - Эффективная температура на солнце - температура, которую ощущает человек, с поправкой на солнечный нагрев. Характеристика знойности погоды. Зависит от высоты солнца над горизонтом, облачности и скорости ветра. Ночью, в пасмурную погоду, а также при ветре 12 м/с и более поправка равна нулю.
P - Атмосферное давление - приведенное к уровню моря атмосферное давление.
Po - Атмосферное давление - измеренное на уровне метеостанции атмосферное давление.
Tmin - Минимальная температура - минимум температуры воздуха на высоте 2 м над землей.
Tmax - Максимальная температура - максимум температуры воздуха на высоте 2 м над землей.
R - Количество осадков - Количество выпавших осадков за период времени, мм. При наведении курсора мыши на число - период времени, за который выпало указанное количество осадков.
R24 - Количество осадков - Количество выпавших осадков за 24 часа, мм.
S - Снежный покров - Высота снежного покрова, см. При наведении курсора мыши на число - состояние снежного покрова и степень покрытия местности в баллах.